Regional Weather Roundup
Issued by NWS

Home | Current Version | Previous Version | Text Only | Print | Product List | Glossary On
Versions: 1 2 3 4 5 6 7 8 9 10 11 12 13 14 15 16 17 18 19 20 21 22 23 24 25 26 27 28 29 30 31 32 33 34 35 36 37 38 39 40 41 42 43 44 45 46 47 48 49 50
000
ASUS45 KBOI 301810
RWRID
WEATHER ROUNDUP FOR IDAHO
NATIONAL WEATHER SERVICE BOISE ID
1200 PM MDT WED JUL 30 2014

NOTE: "FAIR" INDICATES FEW OR NO CLOUDS BELOW 12000 FEET
WITH NO SIGNIFICANT WEATHER AND/OR OBSTRUCTIONS TO VISIBILITY

IDZ012-014-301900-
SOUTHWEST IDAHO


CITY           SKY/WX    TMP DP  RH WIND       PRES   REMARKS
BOISE          MOSUNNY   81  54  39 N6        30.14F
CALDWELL       MOSUNNY   82  54  36 S5        30.15F
MOUNTAIN HOME  PTSUNNY   82  53  36 SE9       30.15S
$$

IDZ016-017-301900-
SOUTHCENTRAL IDAHO


CITY           SKY/WX    TMP DP  RH WIND       PRES   REMARKS
BURLEY         SUNNY     76  52  43 CALM      30.21F
JEROME         SUNNY     80  55  42 N6        30.22F
TWIN FALLS     SUNNY     82  50  32 VRB7      30.22F
$$

IDZ019>023-301900-
SOUTHEAST IDAHO


CITY           SKY/WX    TMP DP  RH WIND       PRES   REMARKS
IDAHO FALLS    PTSUNNY   75  52  44 NW6       30.26F
POCATELLO      MOSUNNY   79  52  38 NE6       30.24F
REXBURG        PTSUNNY   71  52  50 SW6       30.28S
$$

IDZ006-010-011-018-031-032-301900-
CENTRAL IDAHO MOUNTAINS


CITY           SKY/WX    TMP DP  RH WIND       PRES   REMARKS
MCCALL         PTSUNNY   80  43  26 VRB3      30.24S
HAILEY         MOSUNNY   73  55  53 SE12      30.30F
STANLEY          N/A     77  43  29 VRB5      30.34F
SALMON         SUNNY     75  50  41 CALM      30.18F
CHALLIS        SUNNY     78  47  33 NE3       30.25F
$$

IDZ002-004-006-007-026-301900-
NORTHERN IDAHO


CITY           SKY/WX    TMP DP  RH WIND       PRES   REMARKS
LEWISTON       MOSUNNY   88  44  21 VRB3      30.03F
LOWELL           N/A     82  54  37 CALM      30.05F
COEUR D`ALENE  SUNNY     84  52  32 CALM      30.05S
MULLAN PASS    MOSUNNY   74  44  34 CALM      30.32R
$$



USA.gov is the U.S. government's official web portal to all federal, state and local government web resources and services.